Regional Weather Roundup
Issued by NWS

Home | Current Version | Previous Version | Text Only | Print | Product List | Glossary On
Versions: 1 2 3 4 5 6 7 8 9 10 11 12 13 14 15 16 17 18 19 20 21 22 23 24 25 26 27 28 29 30 31 32 33 34 35 36 37 38 39 40 41 42 43 44 45 46
000
ASUS45 KBOU 250207
RWRCO

WEATHER ROUNDUP FOR COLORADO
NATIONAL WEATHER SERVICE DENVER/BOULDER CO
700 PM MST WED DEC 24 2014

NOTE: "FAIR" INDICATES FEW OR NO CLOUDS BELOW 12000 FEET WITH NO
SIGNIFICANT WEATHER AND/OR OBSTRUCTIONS TO VISIBILITY.

COZ001>005-013-030-031-250300-
...NORTHWEST COLORADO...

CITY           SKY/WX    TMP DP  RH WIND       PRES   REMARKS
CRAIG          MOCLDY    25  12  58 E8        29.74F WCI  16
HAYDEN         MOCLDY    21   9  58 SE10      29.73F WCI  10
MEEKER         CLOUDY    31  14  49 W15       29.76F WCI  20
MOUNT WERNER   NOT AVBL
STEAMBOAT SPGS MOCLDY    15   9  76 NW3       29.74F
WALDEN         MOCLDY    25  12  58 S16G23    29.67F WCI  12
$$

COZ006>008-011-250300-
...WEST CENTRAL VALLEYS...

CITY           SKY/WX    TMP DP  RH WIND       PRES   REMARKS
GRAND JUNCTION CLOUDY    28  24  85 CALM      29.86F
MONTROSE       CLOUDY    29  17  61 S3        29.86F
EAGLE          CLEAR     16   9  73 VRB5      29.85F WCI   9
RIFLE          CLOUDY    26  17  68 SE3       29.85F
DELTA          CLOUDY    31  15  50 CALM      29.86F
NUCLA          CLOUDY    32  14  47 CALM      29.90F
$$

COZ017>023-064>068-250300-
...SOUTHWEST COLORADO...

CITY           SKY/WX    TMP DP  RH WIND       PRES   REMARKS
DURANGO        CLOUDY    27   8  44 E5        29.93F WCI  22
CORTEZ         CLEAR     28  19  69 SE3       29.91F
PAGOSA SPRINGS CLOUDY    23   8  52 NE5       29.94F WCI  17
TELLURIDE      CLOUDY    28  15  58 CALM      29.88F
WOLF CREEK PAS MOCLDY    14   5  67 MISG      29.89F
$$

COZ009-010-012-014-032>034-037-058>063-250300-
...CENTRAL COLORADO...

CITY           SKY/WX    TMP DP  RH WIND       PRES   REMARKS
ASPEN          CLOUDY    18   9  68 S3        29.78F
BUENA VISTA    PTCLDY    27  11  52 NE6       29.75F WCI  20
COPPER MTN     PTCLDY    23   9  54 SW16G30   29.79F WCI  10
BERTHOUD PASS  FAIR      14  10  85 MISG      29.71S
COTTONWOOD PAS PTCLDY    32  12  43 NW8G17    29.75F WCI  25
GUNNISON       CLOUDY     3  -2  78 CALM      29.93F
KREMMLING      PTCLDY     3   0  85 CALM      29.81F
LEADVILLE      PTCLDY    24   8  50 N14G20    29.77F WCI  12
MONARCH PASS   MOCLDY    14  10  85 MISG      29.91F
SALIDA         PTCLDY    35  11  36 SW21G31   29.82F WCI  24
SUNLIGHT       CLOUDY   N/A N/A N/A MISG      29.80F
WILKERSON PASS PTCLDY    19  12  73 SW12G20   29.76F WCI   7
$$

COZ069>075-250300-
...SAN LUIS VALLEY/SANGRE DE CRISTO MOUNTAINS...

CITY           SKY/WX    TMP DP  RH WIND       PRES   REMARKS
ALAMOSA        CLOUDY    14   5  67 CALM      29.88F
LA VETA PASS   CLOUDY    16   3  57 MISG      29.77F
SAGUACHE       CLOUDY    10   3  72 NW9       29.88F WCI  -2
$$

COZ035-036-038>040-250300-
...NORTHERN COLORADO FRONT RANGE...

CITY           SKY/WX    TMP DP  RH WIND       PRES   REMARKS
DENVER INTL AP CLOUDY    40  21  46 S8        29.56F
DMNS CITY PARK   N/A     41  21  45 S6        29.56F
AURORA         MOCLDY    43  19  38 S9        29.58F
FRONT RANGE AP NOT AVBL
ERIE MUNI ARPT   N/A    N/A N/A N/A MISG        N/A
BOULDER MUN AP CLOUDY    50  12  22 SW5       29.56S
CENTENNIAL     CLOUDY    43  18  36 SW13      29.57F
BROOMFIELD     MOCLDY    43  18  36 W7        29.57F
FORT COLLINS   CLOUDY    28  12  50 NW6       29.57F WCI  22
LONGMONT       CLOUDY    47  14  27 SW3       29.57F
$$

COZ041-046-047-076>085-087-088-250300-
...PIKES PEAK/PALMER DIVIDE AND SOUTHERN FOOTHILLS...

CITY           SKY/WX    TMP DP  RH WIND       PRES   REMARKS
COLO. SPRINGS  CLOUDY    27  12  53 NE8       29.65F WCI  19
A. F. ACADEMY  MOCLDY    29  16  57 N3        29.65F
ELLICOTT       NOT AVBL
FALCON         CLOUDY    28  18  65 SE3       29.66F
FORT CARSON    CLOUDY    28  17  61 N6        29.64F WCI  22
LIMON          CLOUDY    32  14  47 S7        29.63F WCI  26
MONUMENT HILL  CLOUDY    34  18  51 S9        29.63S WCI  26
TRINIDAD       MOCLDY    33  17  51 W14       29.69F WCI  23
$$

COZ042>045-048>051-090-091-250300-
...NORTHEAST COLORADO...

CITY           SKY/WX    TMP DP  RH WIND       PRES   REMARKS
GREELEY ARPT   CLOUDY    27   9  46 CALM      29.55F
AKRON          CLOUDY    34  23  64 S9        29.56F WCI  27
BURLINGTON     CLOUDY    36  18  48 SW16      29.63F
WRAY           MOCLDY    34  23  63 SW7       29.61F WCI  28
STERLING       CLOUDY    30  27  86 CALM      29.56F
HOLYOKE        MOCLDY    34  27  75 SW12      29.59F WCI  25
FORT MORGAN    CLOUDY    32  22  65 CALM      29.56F
$$

COZ086-089-092>099-250300-
...SOUTHEAST COLORADO...

CITY           SKY/WX    TMP DP  RH WIND       PRES   REMARKS
PUEBLO         CLOUDY    32  16  51 N9        29.64F WCI  24
LA JUNTA       PTCLDY    34  21  59 SW9       29.64F WCI  27
LAMAR          MOCLDY    29  16  58 CALM      29.64F
SPRINGFIELD      N/A     30  16  56 SW8       29.69F WCI  22
$$



USA.gov is the U.S. government's official web portal to all federal, state and local government web resources and services.